Retour au catalogue

CZ-3C DEB

ActifGTO
NORAD 39340·DEBRIS·🇨🇳 China

Lancé Oct 31, 2010 depuis Xichang Satellite Launch Center

Loading…

TLE

VieillissantSource: Space-Track

Époque: Sep 14, 2026, 10:04 UTC

1 39340U 10057E   26257.41993603 -.00000208  00000-0 -63746-3 0  9990
2 39340  19.8314 299.2972 7147383 116.9154 330.4277  2.31236741107381

Suivez CZ-3C DEB en temps réel avec AllMySat

Download on the App Store